Flag for Germany Weather past 2 weeks in Homberg (Efze), Hesse, Germany

Now
43 °F

Overcast.


Feels Like: 43 °F
Forecast: 29 / 59 °F
Wind: 2 mph from Northwest

Location: Fritzlar


UV Index: 3 (Moderate)

Visibility: 13 mi


Pressure: 29.96 "Hg

Humidity: 87%

Dew point: 39 °F

Location of Homberg (Efze)Location

Historic Weather in Homberg (Efze)

°F

Homberg (Efze) temperature yesterday

Maximum temperature yesterday: 58 °F (at 5:00 PM)
Minimum temperature yesterday: 29 °F (at 7:00 AM)
Average temperature yesterday: 43 °F

Past Weeks' High & Low Weather Summary

 TemperatureHumidityPressure
High67 °F (Apr 7, 2:00 PM)98% (Apr 6, 9:00 AM)30.47 "Hg (Apr 6, 9:00 AM)
Low29 °F (Apr 17, 7:00 AM)35% (Apr 17, 6:00 PM)29.68 "Hg (Apr 3, 9:00 PM)
Average50 °F72%30.07 "Hg
* Reported Apr 3 9:00 PM — Apr 18 9:00 PM, Homberg (Efze), Weather by CustomWeather, © 2014

Note: Actual official high and low records may vary slightly from our data, if they occured in-between our weather recording intervals... More about our weather records

Advertising

Historic Weather Conditions — Data for Previous 24 hours

 ConditionsComfort  
Time TempWeatherWind HumidityBarometerVisibility
9:00 PM
Apr 18
45 °FOvercast.6 mph72%29.95 "Hg16 mi
8:00 PM44 °FSprinkles. Overcast.5 mph80%29.94 "Hg19 mi
7:00 PM50 °FPartly sunny.5 mph55%29.91 "Hg12 mi
6:00 PM51 °FPartly sunny.7 mph47%29.90 "Hg25 mi
5:00 PM51 °FOvercast.5 mph47%29.90 "Hg25 mi
4:00 PM48 °FOvercast.2 mph68%29.91 "Hg25 mi
3:00 PM48 °FSprinkles. Partly sunny.7 mph56%29.90 "Hg25 mi
2:00 PM51 °FPartly sunny.6 mph48%29.89 "Hg25 mi
1:00 PM50 °FScattered clouds.6 mph58%29.89 "Hg25 mi
12:00 PM48 °FPartly sunny.6 mph68%29.90 "Hg22 mi
11:00 AM47 °FSprinkles. Partly sunny.6 mph72%29.90 "Hg19 mi
10:00 AM46 °FPartly sunny.6 mph67%29.89 "Hg22 mi
9:00 AM45 °FOvercast.3 mph74%29.89 "Hg16 mi
8:00 AM44 °FPartly sunny.3 mph79%29.88 "Hg16 mi
7:00 AM42 °FScattered clouds.3 mph83%29.87 "Hg11 mi
6:00 AM44 °FOvercast.5 mph83%29.85 "Hg9 mi
5:00 AM44 °FLight rain. Overcast.3 mph84%29.85 "Hg9 mi
4:00 AM47 °FLight rain. Overcast.2 mph80%29.85 "Hg9 mi
3:00 AM49 °FLight rain. Overcast.2 mph67%29.85 "Hg9 mi
2:00 AM51 °FLight rain. Overcast.5 mph58%29.86 "Hg9 mi
Weather by CustomWeather, © 2014

See weather overview